Showing default

QIANFAN-68, 62798

Orbit data source: Space-Track

QIANFAN-68, 62798 is a Chinese payload satellite in LEO that was launched on Thu, 23 Jan 2025 UTC via a CHANG ZHENG 6A launch vehicle from the Taiyaun Space Center, China (TSC). Payload-class satellites include a variety of spacecraft equipped with specific instruments for various scientific and technological missions. These include communications satellites like Starlink; space stations such as the ISS; scientific satellites like the Hubble; Earth observation satellites from companies like Planet Labs, Umbra, and HawkEye 360; GPS; miniature CubeSats for education and research; and military/defense satellites.

Loading next visibility...
Identifier
62798, 2025-016P
Orbit
LEO
Country
Flag of CNCN / PRC
Related business
Manufacturer
SECM
Mission
Operational Commercial Communications
Bus & Motor
QIANFAN, Unknown motor
Mass
267 kg wet, ~267 kg dry
Launch date (UTC)
2025-01-23 (2 years ago)
Launch vehicle
CHANG ZHENG 6A
Launch site
Taiyaun Space Center, China (TSC)
Object type
Payload
Rocket body
Debris
Shape & HBR
Box + 1 Pan, 5.0 m
Radar Cross Section
13.200 m², Large (>1 m²)

Expand to show TLE details & history
Last TLE update: 9 hours ago

TLE from 9 hours ago
0 QIANFAN-68
1 62798U 25016P   26257.56562940  .00000040  00000-0  43801-4 0  9999
2 62798  88.9665  74.4548 0013205 266.5259  93.4382 13.51021679 84482
Epoch: 2026-09-14T13:34Z
TLE epoch observation values (Epoch: 2026-09-14T13:34:30.380Z)
Latitude
0.00002°
Longitude
-122.71588°
Altitude
1,072.058 km
Speed
7.316 km/s
True Right ascension
04h 57m 49s
True Declination
0° 00' 00"
Sunlit
Object was in daylight at epoch
Visualization orbit readout
Latitude
Unknown
Longitude
Unknown
Altitude
Unknown
Speed
Unknown
Apparent Right ascension
Unknown
Apparent Declination
Unknown
Sunlit
N/A
Visualization observer readout
Local Sidereal Time
15:36:29
Azimuth
Unknown
Elevation
Unknown
Doppler factor
Unknown
Orbital elements
Apogee altitude
1,075.382 km
Perigee altitude
1,055.724 km
Semi-major axis
7,443.69 km
Eccentricity
0.00132
Inclination
88.9665°
RAAN
74.4548°
Arg. of periapsis
266.5259°
True anomaly
93.58923°
Mean anomaly
93.4382°
Eccentric anomaly
93.51372°
Mean motion
3.37956 °/min
Orbital period
106.52 mins
BSTAR
0.000043801
Loading maneuver chart data...
Computing Atmospheric mass density...
Loading historical data...
Loading historical data...
Loading historical data...
Loading historical data...
Loading historical data...
Loading historical data...
Loading historical data...

Documentation

Showing up to 5 results
|